Location: Augirein
(42.9320°N, 0.9181°E)
Time: 20:26:26
(UTC+00:00)

Cosmos 2266 Rocket - Pass Details

Date: 20 June 2021
Orbit: 934 x 1007 km, 82.9° (Epoch: 23 July)

Event Time Altitude Azimuth Distance (km) Brightness Sun altitude
Exits shadow 02:49:06 - 181° (S) 2,780 5.9 -12.8°
Reaches altitude 10° 02:49:22 10° 181° (S) 2,677 5.8 -12.8°
Maximum altitude 02:55:29 80° 95° (E) 964 4.0 -12.1°
Drops below altitude 10° 03:01:33 10° 10° (N) 2,660 7.2 -11.3°
Sets 03:04:01 0° 9° (N) 3,604 8.0 -11.0°
